This is the latest recevied weather packets stored in our database for station/object N7CEE. If no packets are shown the sender has not sent any weather packets the latest 10 day(s).
| Time | Temp. | Humidity | Pressure | Rain* | Wind** | Luminosity | Snow |
|---|---|---|---|---|---|---|---|
| 1777531750 | 5° C | 37% | 1024.1 hPa | 0 mm | - | 0 W/m² | - |
| 1777531145 | 5.56° C | 36% | 1024.2 hPa | 0 mm | - | 0 W/m² | - |
| 1777530842 | 5.56° C | 36% | 1024.4 hPa | 0 mm | - | 0 W/m² | - |
| 1777530539 | 6.11° C | 35% | 1024.4 hPa | 0 mm | - | 0 W/m² | - |
| 1777530235 | 6.67° C | 35% | 1024 hPa | 0 mm | - | 0 W/m² | - |
| 1777529932 | 6.67° C | 34% | 1024 hPa | 0 mm | - | 0 W/m² | - |
| 1777529629 | 6.67° C | 33% | 1024.1 hPa | 0 mm | - | 0 W/m² | - |
| 1777529326 | 6.67° C | 33% | 1024 hPa | 0 mm | - | 0 W/m² | - |
| 1777529022 | 7.22° C | 32% | 1024.1 hPa | 0 mm | - | 0 W/m² | - |
| 1777528718 | 7.22° C | 33% | 1024 hPa | 0 mm | - | 0 W/m² | - |
| 1777528415 | 7.22° C | 33% | 1024 hPa | 0 mm | - | 0 W/m² | - |
| 1777528114 | 7.22° C | 32% | 1024.1 hPa | 0 mm | - | 0 W/m² | - |
| 1777527506 | 7.78° C | 32% | 1024.2 hPa | 0 mm | - | 0 W/m² | - |
| 1777527201 | 7.78° C | 32% | 1024.1 hPa | 0 mm | - | 0 W/m² | - |
| 1777526898 | 8.33° C | 31% | 1024 hPa | 0 mm | - | 0 W/m² | - |
| 1777526592 | 8.33° C | 30% | 1024.2 hPa | 0 mm | - | 0 W/m² | - |
| 1777526287 | 8.33° C | 30% | 1024.1 hPa | 0 mm | - | 0 W/m² | - |
| 1777525983 | 8.33° C | 31% | 1024 hPa | 0 mm | - | 0 W/m² | - |
| 1777525680 | 8.89° C | 30% | 1024.1 hPa | 0 mm | - | 0 W/m² | - |
| 1777525378 | 8.89° C | 29% | 1024.1 hPa | 0 mm | - | 0 W/m² | - |
| 1777525073 | 8.89° C | 30% | 1024.2 hPa | 0 mm | - | 0 W/m² | - |
| 1777524770 | 9.44° C | 28% | 1024.1 hPa | 0 mm | - | 0 W/m² | - |
| 1777524469 | 9.44° C | 28% | 1024 hPa | 0 mm | - | 0 W/m² | - |
| 1777524165 | 10° C | 28% | 1023.9 hPa | 0 mm | - | 0 W/m² | - |
| 1777523861 | 10° C | 27% | 1023.7 hPa | 0 mm | - | 0 W/m² | - |
* Rain latest hour (hover to see other rain measurements)
** Current wind speed in m/s (hover to see current wind gust speed)